星链-4218 (STARLINK-4218 )

导读 | 星芒AI

STARLINK-4218 是 SpaceX Starlink 卫星互联网项目中的一颗低轨卫星,属于第 21 批次发射的星链卫星之一。该卫星运行在约 550 公里的轨道高度,旨在为全球用户提供高速、低延迟的互联网服务。作为 Starlink 网络的一部分,它与其他卫星协同工作,提升网络覆盖和连接稳定性。该系统特别关注偏远和网络基础设施薄弱地区的互联网接入,推动全球数字包容性发展。

基本信息
目录编号:
53025
目录名称:
STARLINK-4218
国际标识:
2022-076AR
轨道中心:
EARTH
卫星名称:
星链-4218
卫星全名:
星链-4218 (STARLINK-4218 )
卫星状态:
在轨 (已飞行1217 天)
发射日期:
2022-07-07 UTC
国别 :
美国 (US)
星等 :
--
轨道信息
数据来源 国际轨道数据 AOE轨道数据
星历时间 2025-11-04T23:53:32+0800
11小时前
查看轨道信息
2025-11-04T18:00:00+0800
16小时前
查看轨道信息
半长轴 6917.874km 6917.826km
偏心率 0.0001766 0.0001524
轨道倾角 53.218° 53.217°
近地点辐角 86.479° 84.361°
升交点赤经 285.387° 286.493°
平近点角 273.640° 21.493°
近地点 538.517km 538.636km
远地点 540.961km 540.746km
周期 95.437分钟 95.436分钟
每日圈数 15.088421 15.088578
详细信息
固有亮度:
5
最大亮度:
2.5
卫星平台:
Starlink v1.5
覆盖范围:
全球
运营商:
太空探索技术公司
运营商所在国:
美国
制造商(研发单位):
太空探索技术公司
制造商所在国:
美国
使用方式:
暂无
卫星简介
星链(Starlink)计划是由太空探索技术公司(SpaceX)提出的一个巨型低轨卫星互联网星座项目,计划在2019年至2024年间在太空搭建由约1.2万颗卫星组成的“星链”网络,其中1584颗将部署在地球上空550千米处的近地轨道,并从2020年开始工作。该卫星仍在工作。
2D轨道图
3D轨道图
轨道高度分析图
轨道倾角分析图
轨道综合分析图
查看轨道综合分析图